CW4518 Weather Reports


time (UTC)temp
C
wind
direction
speed
KPH
gust
KPH
rain 1hr
cm
rain 24hr
cm
rain mn
cm
humidity
%
barometer
mb
20260901190006 26 223 3.2 8.0 0.00 0.00 0.00 46 1011.5
20260901185507 26 263 0.0 4.8 0.00 0.00 0.00 47 1011.6
20260901185003 26 256 1.6 8.0 0.00 0.00 0.00 45 1011.6
20260901184512 26 220 3.2 8.0 0.00 0.00 0.00 46 1011.6
20260901184009 26 190 1.6 4.8 0.00 0.00 0.00 48 1011.6
20260901183504 26 221 3.2 8.0 0.00 0.00 0.00 48 1011.7
20260901183005 25 219 0.0 8.0 0.00 0.00 0.00 48 1011.7
20260901182512 25 257 3.2 6.4 0.00 0.00 0.00 48 1011.8
20260901182012 25 226 0.0 6.4 0.00 0.00 0.00 51 1011.8
20260901181504 25 221 1.6 6.4 0.00 0.00 0.00 49 1011.7
20260901181003 25 223 3.2 6.4 0.00 0.00 0.00 49 1011.8
20260901180504 26 290 1.6 4.8 0.00 0.00 0.00 51 1011.8
20260901180004 26 270 1.6 4.8 0.00 0.00 0.00 51 1011.8
20260901175504 25 254 0.0 6.4 0.00 0.00 0.00 51 1011.9
20260901175003 25 205 1.6 6.4 0.00 0.00 0.00 52 1011.9
20260901174507 25 215 3.2 6.4 0.00 0.00 0.00 53 1011.9
20260901174006 25 223 1.6 8.0 0.00 0.00 0.00 55 1012.0
20260901173507 25 246 3.2 8.0 0.00 0.00 0.00 53 1012.0
20260901173020 25 273 1.6 4.8 0.00 0.00 0.00 54 1012.1
20260901172504 24 251 1.6 6.4 0.00 0.00 0.00 53 1012.1
20260901172010 25 257 1.6 6.4 0.00 0.00 0.00 54 1012.2
20260901171522 25 227 1.6 6.4 0.00 0.00 0.00 55 1012.2
20260901171010 24 205 3.2 6.4 0.00 0.00 0.00 58 1012.2
20260901170504 24 211 1.6 6.4 0.00 0.00 0.00 58 1012.3
20260901170004 24 202 1.6 3.2 0.00 0.00 0.00 59 1012.3
20260901165502 24 253 1.6 3.2 0.00 0.00 0.00 59 1012.3
20260901165004 23 288 0.0 4.8 0.00 0.00 0.00 60 1012.3
20260901164518 23 228 0.0 6.4 0.00 0.00 0.00 61 1012.5
20260901164007 23 242 3.2 6.4 0.00 0.00 0.00 59 1012.5
20260901163509 24 210 1.6 8.0 0.00 0.00 0.00 58 1012.7
20260901163007 24 266 3.2 8.0 0.00 0.00 0.00 59 1012.7
20260901162505 24 291 1.6 4.8 0.00 0.00 0.00 61 1012.5
20260901162014 24 219 0.0 6.4 0.00 0.00 0.00 62 1012.5
20260901161504 23 256 1.6 6.4 0.00 0.00 0.00 61 1012.5
20260901161008 24 254 3.2 4.8 0.00 0.00 0.00 60 1012.5
20260901160514 24 257 1.6 4.8 0.00 0.00 0.00 61 1012.4
20260901160024 23 292 0.0 4.8 0.00 0.00 0.00 64 1012.4
20260901155503 23 269 0.0 6.4 0.00 0.00 0.00 62 1012.5
20260901155010 23 255 1.6 6.4 0.00 0.00 0.00 61 1012.3
20260901154505 23 216 3.2 6.4 0.00 0.00 0.00 61 1012.3
20260901154006 23 251 0.0 6.4 0.00 0.00 0.00 63 1012.3
20260901153508 23 278 1.6 6.4 0.00 0.00 0.00 63 1012.3
20260901153016 23 317 1.6 4.8 0.00 0.00 0.00 62 1012.4
20260901152507 23 254 3.2 4.8 0.00 0.00 0.00 61 1012.3
20260901152005 24 257 1.6 3.2 0.00 0.00 0.00 64 1012.3
20260901151513 24 220 1.6 3.2 0.00 0.00 0.00 65 1012.3
20260901151010 24 279 0.0 3.2 0.00 0.00 0.00 67 1012.3
20260901150506 24 278 0.0 3.2 0.00 0.00 0.00 67 1012.2
20260901150008 23 277 0.0 3.2 0.00 0.00 0.00 69 1012.1
20260901145516 23 248 0.0 1.6 0.00 0.00 0.00 68 1012.0
20260901145013 23 232 0.0 4.8 0.00 0.00 0.00 69 1012.0
20260901144507 23 232 0.0 4.8 0.00 0.00 0.00 68 1012.0
20260901144009 23 257 1.6 3.2 0.00 0.00 0.00 69 1012.1
20260901143513 23 229 0.0 1.6 0.00 0.00 0.00 76 1012.1
20260901143005 23 266 0.0 0.0 0.00 0.00 0.00 77 1012.1
20260901142503 23 266 0.0 0.0 0.00 0.00 0.00 77 1012.1
20260901142003 23 266 0.0 0.0 0.00 0.00 0.00 78 1012.2
20260901141509 22 266 0.0 0.0 0.00 0.00 0.00 79 1012.1
20260901141002 22 266 0.0 0.0 0.00 0.00 0.00 82 1012.1
20260901140509 22 266 0.0 0.0 0.00 0.00 0.00 82 1012.3
20260901140023 22 266 0.0 0.0 0.00 0.00 0.00 85 1012.3
20260901135511 21 266 0.0 0.0 0.00 0.00 0.00 87 1012.4
20260901135009 21 266 0.0 0.0 0.00 0.00 0.00 88 1012.4
20260901134522 21 266 0.0 0.0 0.00 0.00 0.00 89 1012.4
20260901134013 20 266 0.0 0.0 0.00 0.00 0.00 90 1012.5
20260901133506 20 266 0.0 0.0 0.00 0.00 0.00 94 1012.5
20260901133016 20 266 0.0 0.0 0.00 0.00 0.00 95 1012.4
20260901132517 19 266 0.0 0.0 0.00 0.00 0.00 95 1012.4
20260901132004 18 266 0.0 0.0 0.00 0.00 0.00 95 1012.4
20260901131507 18 266 0.0 0.0 0.00 0.00 0.00 95 1012.3
20260901131011 17 244 0.0 0.0 0.00 0.00 0.00 95 1012.3
20260901130508 16 244 0.0 0.0 0.00 0.00 0.00 95 1012.2
20260901130017 16 244 0.0 0.0 0.00 0.00 0.00 95 1012.1
20260901125509 16 244 0.0 0.0 0.00 0.00 0.00 95 1012.2
20260901125010 15 244 0.0 0.0 0.00 0.00 0.00 95 1012.2
20260901124518 15 244 0.0 0.0 0.00 0.00 0.00 95 1012.1
20260901124006 14 244 0.0 0.0 0.00 0.00 0.00 95 1012.1
20260901123510 14 244 0.0 0.0 0.00 0.00 0.00 95 1012.1
20260901123026 13 244 0.0 0.0 0.00 0.00 0.00 95 1012.2
20260901122510 13 244 0.0 0.0 0.00 0.00 0.00 95 1012.2
20260901122011 13 244 0.0 0.0 0.00 0.00 0.00 94 1012.2
20260901121523 13 244 0.0 0.0 0.00 0.00 0.00 94 1012.1
20260901121016 13 244 0.0 0.0 0.00 0.00 0.00 94 1012.1
20260901120508 13 244 0.0 0.0 0.00 0.00 0.00 94 1012.0
20260901120023 13 244 0.0 0.0 0.00 0.00 0.00 94 1012.0
20260901115517 13 244 0.0 0.0 0.00 0.00 0.00 94 1011.9
20260901115007 13 244 0.0 0.0 0.00 0.00 0.00 94 1011.9
20260901114516 13 244 0.0 0.0 0.00 0.00 0.00 94 1011.9
20260901114012 13 244 0.0 0.0 0.00 0.00 0.00 94 1011.8
20260901113512 13 244 0.0 0.0 0.00 0.00 0.00 94 1011.7
20260901113010 13 244 0.0 0.0 0.00 0.00 0.00 94 1011.7
20260901112513 13 244 0.0 0.0 0.00 0.00 0.00 94 1011.6
20260901112015 13 244 0.0 0.0 0.00 0.00 0.00 94 1011.6
20260901111507 13 244 0.0 0.0 0.00 0.00 0.00 94 1011.6
20260901111009 13 244 0.0 0.0 0.00 0.00 0.00 94 1011.5
20260901110513 13 244 0.0 0.0 0.00 0.00 0.00 94 1011.5
20260901110030 13 244 0.0 0.0 0.00 0.00 0.00 94 1011.6
20260901105507 13 244 0.0 0.0 0.00 0.00 0.00 93 1011.6
20260901105016 13 235 0.0 0.0 0.00 0.00 0.00 93 1011.5
20260901104512 13 235 0.0 0.0 0.00 0.00 0.00 93 1011.5
20260901104010 13 235 0.0 0.0 0.00 0.00 0.00 93 1011.6
20260901103508 13 235 0.0 0.0 0.00 0.00 0.00 94 1011.7
20260901103016 13 235 0.0 0.0 0.00 0.00 0.00 94 1011.7
20260901102511 13 235 0.0 0.0 0.00 0.00 0.00 94 1011.7
20260901102010 13 235 0.0 0.0 0.00 0.00 0.00 94 1011.7
20260901101520 13 235 0.0 0.0 0.00 0.00 0.00 1011.7
20260901101018 13 235 0.0 0.0 0.00 0.00 0.00 1011.7
20260901100517 13 235 0.0 0.0 0.00 0.00 0.00 94 1011.7
20260901100017 13 235 0.0 0.0 0.00 0.03 0.00 94 1011.7
20260901095514 13 235 0.0 0.0 0.00 0.03 0.00 94 1011.8
20260901095016 13 235 0.0 0.0 0.00 0.03 0.00 94 1011.8
20260901094514 13 235 0.0 0.0 0.00 0.03 0.00 94 1011.7
20260901094013 13 235 0.0 0.0 0.00 0.05 0.00 94 1011.7
20260901093649 13 235 0.0 0.0 0.00 0.05 0.00 94 1011.7
20260901093644 13 235 0.0 0.0 0.00 0.05 0.00 93 1011.7
20260901093639 13 235 0.0 0.0 0.00 0.05 0.00 93 1011.7
20260901093637 13 235 0.0 0.0 0.00 0.05 0.00 93 1011.7
20260901091008 13 235 0.0 0.0 0.00 0.05 0.00 93 1011.7
20260901090511 13 235 0.0 0.0 0.00 0.08 0.00 93 1011.8
20260901090027 13 235 0.0 0.0 0.00 0.08 0.00 93 1011.8
20260901085516 14 235 0.0 0.0 0.00 0.08 0.00 93 1011.8
20260901085011 14 235 0.0 0.0 0.00 0.08 0.00 93 1011.8
20260901084507 14 235 0.0 0.0 0.00 0.08 0.00 93 1011.8
20260901084006 14 235 0.0 0.0 0.00 0.10 0.00 93 1011.9
20260901083505 14 235 0.0 0.0 0.00 0.13 0.00 93 1011.9
20260901083009 14 235 0.0 0.0 0.00 0.15 0.00 93 1011.9
20260901082515 14 235 0.0 0.0 0.00 0.18 0.00 93 1011.9
20260901082009 15 235 0.0 0.0 0.00 0.18 0.00 93 1011.8
20260901081517 15 235 0.0 0.0 0.00 0.18 0.00 93 1011.8
20260901081015 15 235 0.0 0.0 0.00 0.18 0.00 93 1011.8
20260901080504 15 235 0.0 0.0 0.00 0.18 0.00 93 1011.8
20260901080249 15 235 0.0 0.0 0.00 0.18 0.00 93 1011.8
20260901080244 15 235 0.0 0.0 0.00 0.18 0.00 93 1011.8
20260901080240 15 235 0.0 0.0 0.00 0.18 0.00 93 1011.8
20260901080233 15 235 0.0 0.0 0.00 0.18 0.00 93 1011.7
20260901073010 15 225 0.0 0.0 0.00 0.20 0.00 93 1011.7
20260901072504 15 225 0.0 0.0 0.00 0.20 0.00 93 1011.7
20260901072006 15 225 0.0 0.0 0.00 0.20 0.00 93 1011.7
20260901071512 15 225 0.0 0.0 0.00 0.20 0.00 93 1011.7
20260901071007 16 225 0.0 0.0 0.00 0.20 0.00 93 1011.6
20260901070510 16 225 0.0 0.0 0.00 0.20 0.00 93 1011.6
20260901070319 16 225 0.0 0.0 0.00 0.20 0.00 93 1011.7
20260901070315 16 225 0.0 0.0 0.00 0.20 0.00 93 1011.7
20260901070304 16 225 0.0 0.0 0.00 0.20 0.00 93 1011.7
20260901063505 16 225 0.0 0.0 0.00 0.20 0.00 93 1011.7
20260901063024 16 225 0.0 0.0 0.00 0.20 0.00 93 1011.8
20260901062514 16 225 0.0 0.0 0.00 0.20 0.00 93 1011.7
20260901062005 17 225 0.0 0.0 0.00 0.20 0.00 93 1011.7
20260901061517 17 225 0.0 0.0 0.00 0.20 0.00 93 1011.8
20260901061008 17 225 0.0 0.0 0.00 0.20 0.00 93 1011.9
20260901060509 17 225 0.0 0.0 0.00 0.20 0.00 93 1011.9
20260901060009 17 225 0.0 0.0 0.00 0.20 0.00 93 1011.9
20260901055510 17 225 0.0 0.0 0.00 0.20 0.00 93 1011.9
20260901055010 17 225 0.0 0.0 0.00 0.20 0.00 93 1011.9
20260901054520 17 225 0.0 0.0 0.00 0.20 0.00 93 1011.9
20260901054010 17 225 0.0 0.0 0.00 0.20 0.00 93 1011.9
20260901053514 18 225 0.0 0.0 0.00 0.20 0.00 93 1011.8
20260901053027 18 225 0.0 0.0 0.00 0.20 0.00 93 1011.8
20260901052507 18 225 0.0 0.0 0.00 0.20 0.00 93 1011.8
20260901052013 18 225 0.0 0.0 0.00 0.20 0.00 93 1011.9
20260901051528 18 225 0.0 0.0 0.00 0.20 0.00 94 1011.9
20260901051018 18 225 0.0 0.0 0.00 0.20 0.00 94 1011.9
20260901050507 18 225 0.0 0.0 0.00 0.20 0.00 94 1011.9
20260901050013 18 225 0.0 0.0 0.00 0.20 0.00 94 1011.9
20260901045510 18 225 0.0 0.0 0.00 0.20 0.00 94 1011.8
20260901045009 18 225 0.0 0.0 0.00 0.20 0.00 94 1011.9
20260901044536 18 225 0.0 0.0 0.00 0.20 0.00 94 1011.9
20260901044018 18 225 0.0 0.0 0.00 0.20 0.00 94 1011.9
20260901043518 18 225 0.0 0.0 0.00 0.20 0.00 94 1011.9
20260901043015 18 225 0.0 0.0 0.00 0.20 0.00 94 1011.8
20260901042513 19 225 0.0 0.0 0.00 0.20 0.00 94 1011.8
20260901042015 19 225 0.0 0.0 0.00 0.20 0.00 94 1011.7
20260901041524 19 225 0.0 0.0 0.00 0.20 0.00 94 1011.8
20260901041013 19 225 0.0 0.0 0.00 0.20 0.00 94 1011.8
20260901040514 19 225 0.0 0.0 0.00 0.20 0.00 94 1011.8
20260901040033 19 225 0.0 0.0 0.00 0.20 0.00 94 1011.7
20260901035512 19 225 0.0 0.0 0.00 0.20 0.20 94 1011.6
20260901035008 19 225 0.0 0.0 0.00 0.20 0.20 94 1011.6
20260901034520 19 225 0.0 0.0 0.00 0.20 0.20 94 1011.6
20260901034007 19 225 0.0 0.0 0.00 0.20 0.20 94 1011.7
20260901033511 19 225 0.0 0.0 0.00 0.20 0.20 94 1011.7
20260901033049 19 225 0.0 0.0 0.00 0.20 0.20 94 1011.7
20260901032511 19 225 0.0 0.0 0.00 0.20 0.20 94 1011.7
20260901032011 19 225 0.0 0.0 0.00 0.20 0.20 93 1011.6
20260901031633 19 225 0.0 0.0 0.00 0.20 0.20 93 1011.6
20260901031626 19 225 0.0 0.0 0.00 0.20 0.20 92 1011.6
20260901025019 19 225 0.0 0.0 0.00 0.20 0.20 92 1011.6
20260901024522 19 225 0.0 0.0 0.00 0.20 0.20 92 1011.6
20260901024013 20 225 0.0 0.0 0.00 0.20 0.20 92 1011.6
20260901023515 20 225 0.0 0.0 0.00 0.20 0.20 92 1011.6
20260901023017 20 225 0.0 0.0 0.00 0.20 0.20 92 1011.6
20260901022512 20 225 0.0 0.0 0.00 0.20 0.20 92 1011.6
20260901022012 20 225 0.0 0.0 0.00 0.20 0.20 92 1011.6
20260901021523 20 225 0.0 0.0 0.00 0.20 0.20 92 1011.6
20260901021010 20 225 0.0 0.0 0.00 0.20 0.20 92 1011.6
20260901020512 20 225 0.0 0.0 0.00 0.20 0.20 92 1011.6
20260901020032 20 225 0.0 0.0 0.00 0.20 0.20 92 1011.6
20260901015515 20 225 0.0 0.0 0.00 0.20 0.20 92 1011.5
20260901015013 20 225 0.0 0.0 0.00 0.20 0.20 92 1011.5
20260901014528 20 225 0.0 0.0 0.00 0.20 0.20 92 1011.5
20260901014019 21 225 0.0 0.0 0.00 0.20 0.20 92 1011.5
20260901013511 21 225 0.0 0.0 0.00 0.20 0.20 92 1011.4
20260901013032 21 226 0.0 0.0 0.00 0.20 0.20 92 1011.4
20260901012517 21 226 0.0 0.0 0.00 0.20 0.20 91 1011.3
20260901012010 21 226 0.0 1.6 0.00 0.20 0.20 91 1011.3
20260901011621 21 225 0.0 1.6 0.00 0.20 0.20 91 1011.2
20260901011613 21 330 0.0 0.0 0.00 0.20 0.20 91 1011.0
20260901005019 21 330 0.0 0.0 0.00 0.20 0.20 91 1011.0
20260901004531 21 330 0.0 0.0 0.00 0.20 0.20 91 1011.0
20260901004011 21 330 0.0 1.6 0.00 0.20 0.20 90 1011.1
20260901003515 21 290 0.0 1.6 0.00 0.20 0.20 90 1011.1
20260901003040 21 309 0.0 0.0 0.00 0.20 0.20 90 1011.1
20260901002511 21 342 0.0 0.0 0.00 0.20 0.20 90 1011.0
20260901002014 21 319 0.0 1.6 0.00 0.20 0.20 90 1010.9
20260901001531 21 319 0.0 3.2 0.00 0.20 0.20 90 1010.9
20260901001016 21 9 0.0 3.2 0.00 0.20 0.20 90 1010.9
20260901000513 21 288 0.0 0.0 0.00 0.20 0.20 89 1011.0
20260901000031 21 279 0.0 3.2 0.00 0.20 0.20 89 1011.0
20260831235513 22 275 0.0 3.2 0.00 0.20 0.20 89 1011.0
20260831235010 22 252 0.0 3.2 0.00 0.20 0.20 88 1011.0
20260831234527 22 247 0.0 3.2 0.00 0.20 0.20 88 1011.0
20260831234017 22 267 0.0 1.6 0.00 0.20 0.20 89 1010.9
20260831233515 22 360 0.0 1.6 0.00 0.20 0.20 89 1010.9
20260831233019 22 343 0.0 0.0 0.00 0.20 0.20 89 1010.9
20260831232518 22 343 0.0 0.0 0.00 0.20 0.20 89 1010.8
20260831232019 22 343 0.0 0.0 0.00 0.20 0.20 88 1010.7
20260831231532 22 343 0.0 0.0 0.00 0.20 0.20 88 1010.7
20260831231013 22 343 0.0 0.0 0.00 0.20 0.20 88 1010.7
20260831230516 22 343 0.0 0.0 0.00 0.20 0.20 88 1010.7
20260831230254 22 343 0.0 0.0 0.00 0.20 0.20 88 1010.7
20260831230247 22 344 0.0 0.0 0.00 0.20 0.20 88 1010.7
20260831230243 22 344 0.0 0.0 0.00 0.20 0.20 88 1010.8
20260831230240 22 344 0.0 0.0 0.00 0.20 0.20 88 1010.7
20260831230237 22 344 0.0 0.0 0.00 0.20 0.20 87 1010.6
20260831223004 22 344 0.0 0.0 0.00 0.20 0.20 87 1010.5
20260831222504 22 344 0.0 0.0 0.00 0.20 0.20 87 1010.6
20260831222005 22 344 0.0 0.0 0.00 0.20 0.20 87 1010.6
20260831221504 22 344 0.0 3.2 0.00 0.20 0.20 89 1010.6
20260831221007 22 344 0.0 3.2 0.00 0.20 0.20 89 1010.6
20260831220505 22 267 0.0 3.2 0.00 0.20 0.20 89 1010.5
20260831220020 22 76 0.0 0.0 0.00 0.20 0.20 89 1010.6
20260831215507 22 76 0.0 0.0 0.00 0.20 0.20 88 1010.4
20260831215007 22 118 0.0 3.2 0.00 0.20 0.20 87 1010.6
20260831214511 22 118 0.0 3.2 0.00 0.20 0.20 87 1010.4
20260831214003 22 112 0.0 3.2 0.00 0.20 0.20 87 1010.4
20260831213511 22 151 1.6 6.4 0.00 0.20 0.20 86 1010.4
20260831213012 22 150 1.6 6.4 0.00 0.20 0.20 86 1010.3
20260831212506 23 139 0.0 3.2 0.00 0.20 0.20 86 1010.2
20260831212006 23 118 0.0 3.2 0.00 0.20 0.20 87 1010.2
20260831211506 23 136 0.0 3.2 0.00 0.20 0.20 87 1010.1
20260831211005 23 134 0.0 3.2 0.00 0.20 0.20 86 1010.1
20260831210504 23 134 0.0 3.2 0.00 0.20 0.20 86 1010.1
20260831210011 23 131 0.0 3.2 0.00 0.20 0.20 86 1010.0
20260831205510 23 117 0.0 3.2 0.00 0.20 0.20 86 1009.9
20260831205011 23 129 0.0 3.2 0.00 0.20 0.20 86 1009.9
20260831204508 23 116 0.0 0.0 0.00 0.20 0.20 87 1009.8
20260831204007 23 116 0.0 0.0 0.00 0.20 0.20 87 1009.8
20260831203506 23 112 0.0 0.0 0.00 0.20 0.20 86 1009.6
20260831203004 23 115 0.0 1.6 0.00 0.20 0.20 86 1009.6
20260831202512 23 115 0.0 6.4 0.00 0.20 0.20 86 1009.6
20260831202009 23 115 0.0 6.4 0.00 0.20 0.20 86 1009.6
20260831201516 23 150 0.0 3.2 0.00 0.20 0.20 86 1009.6
20260831201008 23 130 0.0 4.8 0.00 0.20 0.20 87 1009.7
20260831200503 23 160 0.0 4.8 0.00 0.20 0.20 87 1009.9
20260831200008 23 119 1.6 4.8 0.00 0.20 0.20 86 1009.7
20260831195504 23 152 0.0 3.2 0.00 0.20 0.20 86 1009.8
20260831195007 23 123 0.0 3.2 0.00 0.20 0.20 86 1009.7
20260831194519 23 96 0.0 8.0 0.00 0.20 0.20 86 1009.9
20260831194009 23 110 1.6 8.0 0.00 0.20 0.20 85 1009.9
20260831193508 23 135 4.8 8.0 0.00 0.20 0.20 84 1009.9
20260831193017 23 117 0.0 4.8 0.00 0.20 0.20 86 1009.8
20260831192511 23 138 0.0 6.4 0.00 0.20 0.20 86 1009.8
20260831192010 23 140 3.2 6.4 0.00 0.20 0.20 85 1009.9
20260831191512 23 136 0.0 4.8 0.00 0.20 0.20 85 1009.9
20260831191010 23 153 0.0 4.8 0.00 0.20 0.20 86 1009.9
20260831190507 23 149 0.0 3.2 0.00 0.20 0.20 86 1010.0